Terminal Aerodrome Forecast
Issued by NWS La Crosse, WI

Home | Current Version | Previous Version | Text Only | Print | Product List | Glossary On
Versions: 1 2 3 4 5 6 7 8 9 10 11 12 13 14 15 16 17 18 19 20 21 22 23 24 25 26 27 28 29 30 31 32 33
000
FTUS43 KARX 311723
TAFLSE
TAF
KLSE 311723Z 3118/0118 03005KT P6SM OVC020
     FM010500 03006KT 5SM -SN OVC015
     FM010700 04012KT 1SM -SN OVC010
     FM011500 01012KT 5SM -SN OVC017=

USA.gov is the U.S. government's official web portal to all federal, state and local government web resources and services.